Zurück zum Katalog

STARLINK-5113

AktivKommunikationVLEO
NORAD 53988·PAYLOAD·🇺🇸 United States

Gestartet Oct 5, 2022 von Vandenberg Space Force Base

Loading…

Nächste Überflüge (nächste 24 Stunden)

TLE

AktuellSource: CelesTrak SupGP

Epoche: Sep 14, 2026, 20:45 UTC

1 53988C 22125AA  26257.86506944  .00020946  00000+0  61895-3 0  2578
2 53988  53.1600  78.0666 0001356  80.7901 143.7374 15.34375966    12

Verfolge STARLINK-5113 in Echtzeit mit AllMySat

Download on the App Store